This demonstration page uses our WeatherBlox Daily Observations layout. Learn more.

Left ArrowRight Arrow

38.88101, -77.10428

Hourly Observations for December 14, 2020

Temp ( °F °C ) Dew Point ( °F °C ) Humidity (%) Winds ( mph kmh ) Pressure ( in mb ) Visibility ( mi km ) Precip ( " mm )
12:52 am 00:52 Cloudy 46 7.8 36 2.2 68 68 N 8 13 30.05 1018 10 16 0.00 0.00
1:52 am 01:52 Cloudy 45 7.2 36 2.2 71 71 ENE 7 11 30.03 1017 10 16 0.00 0.00
2:52 am 02:52 Cloudy 45 7.2 36 2.2 71 71 NNE 6 9 30.02 1017 10 16 0.00 0.00
3:52 am 03:52 Cloudy 45 7.2 36 2.2 71 71 ENE 6 9 30.01 1016 10 16 0.00 0.00
4:52 am 04:52 Cloudy 45 7.2 36 2.2 71 71 NE 5 7 30.00 1016 10 16 0.00 0.00
5:52 am 05:52 Cloudy with Light Rain 45 7.2 36 2.2 71 71 N 6 9 29.97 1015 9 14 0.01 0.25
6:52 am 06:52 Cloudy with Rain 43 6.1 39 3.9 86 86 ENE 6 9 29.95 1014 4 6 0.10 2.54
7:52 am 07:52 Cloudy with Rain 42 5.6 39 3.9 89 89 NE 8 13 29.95 1014 5 8 0.15 3.81
8:52 am 08:52 Cloudy with Rain 42 5.6 39 3.9 89 89 NNE 12 19 29.94 1014 5 8 0.15 3.81
9:52 am 09:52 Cloudy with Rain 42 5.6 39 3.9 89 89 NNE 10 17 29.95 1014 4 6 0.15 3.81
10:07 am 10:07 Cloudy with Rain 42 5.6 39 3.9 89 89 N 8 13 29.97 1015 4 6 0.04 1.02
10:52 am 10:52 Cloudy with Rain 42 5.6 39 3.9 89 89 N 8 13 29.95 1014 3 5 0.17 4.32
10:56 am 10:56 Cloudy with Heavy Rain 42 5.6 40 4.4 92 92 NNE 8 13 29.95 1014 3 4 0.02 0.51
11:14 am 11:14 Cloudy with Rain 42 5.6 39 3.9 89 89 NNE 10 17 29.94 1014 3 5 0.10 2.54
11:33 am 11:33 Cloudy with Rain 41 5 38 3.3 89 89 NNE 14 22 29.93 1014 5 8 0.16 4.06
11:52 am 11:52 Cloudy with Rain 42 5.6 39 3.9 89 89 N 12 19 29.91 1013 5 8 0.20 5.08
12:26 pm 12:26 Cloudy with Light Rain 41 5 38 3.3 89 89 N 14 22 29.89 1012 9 14 0.04 1.02
12:52 pm 12:52 Cloudy with Light Rain 41 5 37 2.8 86 86 N 15 24 29.89 1012 6 10 0.08 2.03
1:15 pm 13:15 Cloudy with Light Rain 41 5 38 3.3 89 89 NNW 10 17 29.92 1013 8 13 0.02 0.51
1:48 pm 13:48 Cloudy with Light Rain 39 4 37 3 93 93 NNW 15 24 29.92 1013 7 11 0.04 1.02
1:52 pm 13:52 Cloudy with Light Rain 40 4.4 37 2.8 89 89 NNW 16 26 29.91 1013 8 13 0.04 1.02
1:59 pm 13:59 Cloudy with Light Rain 40 4.4 37 2.8 89 89 NNW 17 28 29.91 1013 10 16 0.00 0.00
2:52 pm 14:52 Cloudy 40 4.4 37 2.8 89 89 NNW 10 17 29.90 1013 10 16 0.01 0.25
3:07 pm 15:07 Mostly Cloudy 41 5 37 2.8 86 86 NNW 16 26 29.91 1013 10 16 0.00 0.00
3:10 pm 15:10 Mostly Cloudy 41 5 37 2.8 86 86 NNW 14 22 29.91 1013 10 16 0.00 0.00
3:52 pm 15:52 Mostly Cloudy 42 5.6 36 2.2 79 79 NW 15 24 29.93 1014 10 16 0.00 0.00
4:07 pm 16:07 Mostly Cloudy 42 5.6 36 2.2 79 79 NNW 17 28 29.95 1014 10 16 0.00 0.00
4:52 pm 16:52 Mostly Cloudy 42 5.6 34 1.1 73 73 NNW 21 33 29.98 1015 10 16 0.00 0.00
5:52 pm 17:52 Mostly Cloudy 40 4.4 30 -1.1 68 68 NNW 15 24 30.01 1016 10 16 0.00 0.00
6:52 pm 18:52 Mostly Cloudy 40 4.4 30 -1.1 68 68 NNW 15 24 30.03 1017 10 16 0.00 0.00
7:52 pm 19:52 Cloudy 40 4.4 30 -1.1 68 68 NW 6 9 30.06 1018 10 16 0.00 0.00
8:52 pm 20:52 Cloudy 41 5 29 -1.7 62 62 NW 9 15 30.09 1019 10 16 0.00 0.00
9:52 pm 21:52 Mostly Cloudy 41 5 29 -1.7 62 62 NW 10 17 30.13 1020 10 16 0.00 0.00
10:52 pm 22:52 Mostly Cloudy 39 3.9 25 -3.9 57 57 NNW 15 24 30.16 1021 10 16 0.00 0.00
11:52 pm 23:52 Mostly Clear 37 2.8 23 -5 57 57 NNW 15 24 30.19 1022 10 16 0.00 0.00

Powered by AerisWeather